KI5IZM-13 Weather Reports


time (UTC)temp
C
wind
direction
speed
KPH
gust
KPH
rain 1hr
cm
rain 24hr
cm
rain mn
cm
humidity
%
barometer
mb
20260507124510 11 352 0.0 0.0 0.00 0.00 0.00 88 1019.8
20260507123018 11 63 0.0 0.0 0.00 0.00 0.00 88 1019.9
20260507121520 11 334 0.0 1.6 0.00 0.00 0.00 88 1019.6
20260507120029 11 250 0.0 3.2 0.00 0.00 0.00 88 1019.6
20260507114508 11 164 0.0 1.6 0.00 0.00 0.00 88 1019.3
20260507113008 11 169 0.0 0.0 0.00 0.00 0.00 87 1019.0
20260507111518 11 154 0.0 1.6 0.00 0.00 0.00 86 1018.9
20260507110020 11 148 0.0 3.2 0.00 0.00 0.00 87 1018.4
20260507104523 11 124 0.0 3.2 0.00 0.00 0.00 87 1017.8
20260507103007 11 167 0.0 1.6 0.00 0.00 0.00 87 1017.6
20260507101518 11 143 0.0 3.2 0.00 0.00 0.00 87 1017.4
20260507100031 11 164 0.0 3.2 0.00 0.00 0.00 88 1017.3
20260507094519 11 146 0.0 1.6 0.00 0.00 0.00 87 1017.3
20260507093028 11 123 0.0 3.2 0.00 0.00 0.00 87 1017.2
20260507091510 11 149 0.0 3.2 0.00 0.00 0.00 86 1017.1
20260507090014 11 117 0.0 3.2 0.00 0.00 0.00 86 1016.7
20260507084542 11 76 0.0 3.2 0.00 0.00 0.00 86 1016.6
20260507083025 11 86 0.0 3.2 0.00 0.00 0.00 86 1016.7
20260507081524 11 101 0.0 6.4 0.00 0.00 0.00 86 1016.4
20260507080025 11 90 0.0 3.2 0.00 0.00 0.00 87 1016.6
20260507074517 11 117 1.6 9.7 0.00 0.00 0.00 86 1016.5
20260507073004 11 48 0.0 8.0 0.00 0.00 0.00 86 1016.8
20260507071514 12 57 0.0 14.5 0.00 0.00 0.00 86 1016.9
20260507070017 12 121 1.6 11.3 0.00 0.00 0.00 87 1017.4
20260507064503 12 73 0.0 3.2 0.00 0.00 0.00 87 1017.6
20260507063003 12 140 1.6 8.0 0.00 0.00 0.00 87 1017.6
20260507061504 12 48 1.6 4.8 0.00 0.00 0.00 86 1017.8
20260507060006 12 173 1.6 8.0 0.00 0.00 0.00 86 1017.5
20260507054510 12 110 1.6 19.3 0.00 0.00 0.00 86 1017.6
20260507053003 12 299 0.0 9.7 0.00 0.00 0.00 86 1017.6
20260507051504 12 149 0.0 6.4 0.00 0.00 0.00 86 1017.7
20260507050020 12 132 0.0 4.8 0.00 0.00 0.00 86 1017.7
20260507044513 12 100 0.0 6.4 0.00 0.00 0.00 86 1017.7
20260507043010 12 30 3.2 16.1 0.00 0.00 0.00 86 1017.4
20260507041516 13 155 0.0 4.8 0.00 0.00 0.00 88 1017.4
20260507040005 13 352 0.0 17.7 0.00 0.00 0.00 89 1017.4
20260507034506 13 118 0.0 14.5 0.00 0.00 0.00 88 1017.0
20260507033008 13 246 1.6 6.4 0.00 0.00 0.00 87 1017.0
20260507031514 13 300 0.0 9.7 0.00 0.00 0.00 87 1016.7
20260507030018 14 109 0.0 9.7 0.00 0.00 0.00 88 1016.4
20260507024504 14 291 0.0 4.8 0.00 0.00 0.00 89 1016.0
20260507023004 14 77 3.2 16.1 0.00 0.00 0.00 89 1015.7
20260507021519 14 13 0.0 9.7 0.00 0.00 0.00 90 1015.8
20260507020022 15 54 0.0 3.2 0.00 0.00 0.00 90 1015.3
20260507014523 15 107 0.0 9.7 0.00 0.00 0.00 90 1014.4
20260507013007 15 90 3.2 8.0 0.00 0.00 0.00 90 1014.0
20260507011530 15 113 0.0 6.4 0.00 0.00 0.00 91 1014.3
20260507010028 15 5 0.0 6.4 0.00 0.00 0.00 91 1013.9
20260507004520 15 69 1.6 8.0 0.00 0.00 0.00 91 1013.9
20260507003022 15 71 0.0 8.0 0.00 0.00 0.00 91 1013.7
20260507001507 15 350 0.0 4.8 0.00 0.00 0.00 90 1013.6
20260507000010 15 82 1.6 9.7 0.00 0.00 0.00 90 1013.7
20260506234515 16 127 0.0 3.2 0.00 0.00 0.00 90 1013.5
20260506233028 16 19 0.0 6.4 0.00 0.00 0.00 89 1013.7
20260506231528 16 85 0.0 3.2 0.00 0.00 0.00 89 1013.6
20260506230029 16 318 0.0 3.2 0.00 0.00 0.00 88 1013.2
20260506224514 16 333 0.0 3.2 0.00 0.00 0.00 89 1013.1
20260506223019 16 5 0.0 6.4 0.00 0.00 0.00 88 1013.0
20260506221530 16 142 0.0 3.2 0.00 0.00 0.00 88 1013.1
20260506220031 16 350 0.0 4.8 0.00 0.00 0.00 87 1012.8
20260506214531 16 71 0.0 4.8 0.00 0.00 0.00 87 1012.8
20260506213022 16 315 0.0 4.8 0.00 0.00 0.00 85 1013.1
20260506211523 17 128 0.0 4.8 0.00 0.00 0.00 85 1013.2
20260506210032 17 229 0.0 1.6 0.00 0.00 0.00 84 1012.9
20260506204541 17 104 0.0 4.8 0.00 0.00 0.00 84 1012.3
20260506203030 17 22 3.2 9.7 0.00 0.00 0.00 84 1012.2
20260506201519 16 102 1.6 4.8 0.00 0.00 0.00 85 1012.7
20260506200022 16 33 0.0 4.8 0.00 0.00 0.00 86 1012.9
20260506194526 16 131 0.0 4.8 0.00 0.00 0.00 85 1013.2
20260506193027 16 43 0.0 11.3 0.00 0.00 0.00 85 1013.4
20260506191527 16 65 3.2 9.7 0.00 0.00 0.00 85 1013.1
20260506190020 16 273 0.0 6.4 0.00 0.00 0.00 84 1012.9
20260506184524 16 133 0.0 4.8 0.00 0.00 0.00 83 1012.4
20260506183026 16 107 1.6 11.3 0.00 0.00 0.00 84 1012.1
20260506181528 16 55 0.0 6.4 0.00 0.00 0.00 84 1012.4
20260506180030 16 37 0.0 6.4 0.00 0.00 0.00 84 1013.5
20260506174520 16 351 0.0 12.9 0.00 0.00 0.00 85 1013.3
20260506173026 15 146 1.6 8.0 0.00 0.00 0.00 86 1013.4
20260506171536 15 25 0.0 9.7 0.00 0.00 0.00 87 1014.0
20260506170025 15 352 0.0 11.3 0.00 0.00 0.00 87 1014.6
20260506164526 15 36 1.6 6.4 0.00 0.00 0.00 87 1015.4
20260506163006 15 240 0.0 4.8 0.00 0.00 0.00 87 1015.7
20260506161509 15 269 0.0 9.7 0.00 0.00 0.00 86 1015.1
20260506160012 15 46 0.0 3.2 0.00 0.00 0.00 86 1014.6
20260506154513 15 38 1.6 9.7 0.00 0.00 0.00 86 1014.0
20260506153020 15 11 0.0 4.8 0.00 0.00 0.00 85 1013.5
20260506151505 15 256 0.0 3.2 0.00 0.00 0.00 86 1013.4
20260506150017 15 146 0.0 3.2 0.00 0.00 0.00 86 1013.5
20260506144513 15 49 0.0 12.9 0.00 0.00 0.00 86 1013.3
20260506143036 15 59 0.0 6.4 0.00 0.00 0.00 86 1012.9
20260506141522 16 84 0.0 3.2 0.00 0.00 0.00 87 1012.7
20260506140010 16 61 0.0 9.7 0.00 0.00 0.00 87 1012.6
20260506134508 16 62 0.0 4.8 0.00 0.00 0.00 87 1012.2
20260506133013 17 327 0.0 4.8 0.00 0.00 0.00 86 1012.4
20260506131526 17 209 0.0 8.0 0.00 0.00 0.00 87 1012.1
20260506130024 18 265 0.0 3.2 0.00 0.00 0.00 86 1011.9